Flag for U.S.A. Weather past 2 weeks in Oklahoma City, Oklahoma, U.S.A.

Now
67 °F

Passing clouds.


Feels Like: 67 °F
Forecast: 71 / 91 °F
Wind: 6 mph from South

Location: Will Rogers World Airport

Current Time: Sep 1, 2015 at 7:39:08 AM

Latest Report: Sep 1, 2015 at 6:52 AM


Visibility: 10 mi

Pressure: 29.98 "Hg

Humidity: 90%

Dew point: 64 °F

Location of Oklahoma CityLocation

Historic Weather in Oklahoma City — Graph

°F

Oklahoma City temperature yesterday

Maximum temperature yesterday: 93 °F (at 4:52 PM)
Minimum temperature yesterday: 67 °F (at 5:52 AM)
Average temperature yesterday: 80 °F

Past Weeks' High & Low Weather Summary

 TemperatureHumidityPressure
High94 °F (Aug 27, 3:52 PM)97% (Aug 21, 6:52 AM)30.17 "Hg (Aug 21, 6:52 AM)
Low51 °F (Aug 20, 6:52 AM)33% (Aug 31, 4:52 PM)29.62 "Hg (Aug 18, 7:52 PM)
Average77 °F67%29.95 "Hg
* Reported Aug 17 5:52 AM — Sep 1 5:52 AM, Oklahoma City, Weather by CustomWeather, © 2015

Note: Actual official high and low records may vary slightly from our data, if they occured in-between our weather recording intervals... More about our weather records

Advertising

Oklahoma City weather history for previous 24 hours

 ConditionsComfort  
Time TempWeatherWind HumidityBarometerVisibility
5:52 AM
Tue, Sep 1
68 °FClear.6 mph84%29.98 "Hg10 mi
4:52 AM69 °FClear.6 mph81%29.97 "Hg10 mi
3:52 AM71 °FClear.10 mph78%29.96 "Hg10 mi
2:52 AM72 °FClear.8 mph76%29.96 "Hg10 mi
1:52 AM71 °FClear.8 mph78%29.97 "Hg10 mi
12:52 AM74 °FClear.8 mph71%29.97 "Hg10 mi
11:52 PM
Mon, Aug 31
75 °FClear.8 mph66%29.96 "Hg10 mi
10:52 PM78 °FClear.9 mph60%29.95 "Hg10 mi
9:52 PM79 °FClear.10 mph58%29.95 "Hg10 mi
8:52 PM81 °FSunny.10 mph56%29.93 "Hg10 mi
7:52 PM84 °FPassing clouds.8 mph49%29.91 "Hg10 mi
6:52 PM89 °FPassing clouds.12 mph41%29.90 "Hg10 mi
5:52 PM92 °FPassing clouds.14 mph35%29.89 "Hg10 mi
4:52 PM93 °FPassing clouds.16 mph33%29.90 "Hg10 mi
3:52 PM92 °FPassing clouds.16 mph36%29.90 "Hg10 mi
2:52 PM92 °FSunny.15 mph37%29.93 "Hg10 mi
1:52 PM92 °FPassing clouds.18 mph37%29.94 "Hg10 mi
12:52 PM90 °FPassing clouds.15 mph42%29.95 "Hg10 mi
11:52 AM88 °FPassing clouds.14 mph45%29.96 "Hg10 mi
10:52 AM85 °FPassing clouds.16 mph50%29.97 "Hg10 mi
9:52 AM79 °FPassing clouds.13 mph62%29.96 "Hg10 mi
8:52 AM73 °FPassing clouds.13 mph76%29.96 "Hg10 mi
7:52 AM68 °FPassing clouds.8 mph87%29.95 "Hg10 mi
Weather by CustomWeather, © 2015

See weather overviewHow to use our weather pages